Location: Lombard
(41.8800°N, 88.0080°W)
Time: 19:22:07
(UTC-05:00)

Transit 2A - Pass Details

Date: 15 February 2023
Orbit: 591 x 964 km, 66.7° (Epoch: 29 March)

Event Time Altitude Azimuth Distance (km) Brightness Sun altitude
Rises 13:33:57 0° 198° (SSW) 2,980 10.2 31.9°
Reaches altitude 10° 13:36:10 10° 194° (SSW) 2,119 9.8 31.8°
Maximum altitude 13:40:54 60° 115° (ESE) 838 6.7 31.4°
Drops below altitude 10° 13:46:14 10° 37° (NE) 2,375 8.1 30.9°
Sets 13:48:49 0° 34° (NE) 3,373 8.8 30.7°
